WORLDVIEW-3 (WV-3)

Last updated on Fri Oct 04 2024 00:02:25 GMT+0000 (Coordinated Universal Time)

1 40115U 14048A 24277.49500498 .00005682 00000+0 68456-3 0 9991 2 40115 97.8684 349.3518 0005561 211.6824 148.4056 14.84233443549641
UTC large
Height (km)
Speed (km/s)
/
Latitude / Longitude
Inclination (degrees)
Orbital Period (minutes)
Azimuth
Elevation
Range (km)
Doppler Factor

Next 0 passes for location: London (51.5072 / 0.1276)

Sorry there are no passes over London.